CUSAT 2 & FALCON 9 R/B (39271 NORAD) Tracking and Keplerian Element Data

This shows tracking and keplerian element data for the satellite.

Feedback or suggestion? Click here.




ElementValue
Catalog39271
NameCUSAT 2 & FALCON 9 R/B
Epoch Orbit47159
Epoch Day269.70618278
Epoch Year2022
RAAN83.3729
Inclination80.9526
Eccentricity0.0512973
Argument of Perigee164.7793
Mean Anonmoly196.9531
Mean Motion14.66827701
Decay Rate0.00031916
L11 39271U 13055G 22269.70618278 .00031916 00000+0 66923-3 0 9994
L22 39271 80.9526 83.3729 0512973 164.7793 196.9531 14.66827701471592

Live tracking and technical data element details for CUSAT 2 & FALCON 9 R/B (NORAD 39271). CUSAT 2 & FALCON 9 R/B can be tracked NOW for your location showing map with azimuth and elevation plus other details from your city location.

Track the satellite on the map from your city or location and see movement details for azimuth, elevation, latitude, longitude, range, height, and movement on the map or in text.







IsCatalogInMostPopularTable: catalog: 39271, numindb: 906
Update: records affected: 1



GetName: 39271 CUSAT 2 & FALCON 9 R/B

Hit Count: updated at: Fri, 30 Sep 2022 04:17:02 GMT